TimeMDT,TemperatureF,Dew PointF,Humidity,Sea Level PressureIn,VisibilityMPH,Wind Direction,Wind SpeedMPH,Gust SpeedMPH,PrecipitationIn,Events,Conditions,WindDirDegrees,DateUTC
12:16 AM,42.8,23.0,46,30.12,10.0,Calm,Calm,-,N/A,,Clear,0,2013-05-26 06:16:00
12:36 AM,42.8,24.8,49,30.12,10.0,ESE,3.5,-,N/A,,Clear,110,2013-05-26 06:36:00
12:56 AM,39.2,28.4,65,30.13,10.0,Calm,Calm,-,N/A,,Clear,0,2013-05-26 06:56:00
1:16 AM,41.0,23.0,49,30.13,10.0,Calm,Calm,-,N/A,,Clear,0,2013-05-26 07:16:00
1:35 AM,37.4,23.0,56,30.14,10.0,Calm,Calm,-,N/A,,Clear,0,2013-05-26 07:35:00
1:55 AM,37.4,24.8,60,30.14,10.0,Calm,Calm,-,N/A,,Clear,0,2013-05-26 07:55:00
2:16 AM,37.4,26.6,65,30.14,10.0,Calm,Calm,-,N/A,,Clear,0,2013-05-26 08:16:00
2:36 AM,37.4,26.6,65,30.14,10.0,Calm,Calm,-,N/A,,Clear,0,2013-05-26 08:36:00
2:56 AM,37.4,26.6,65,30.14,10.0,Calm,Calm,-,N/A,,Clear,0,2013-05-26 08:56:00
3:16 AM,35.6,24.8,65,30.14,10.0,Calm,Calm,-,N/A,,Clear,0,2013-05-26 09:16:00
3:36 AM,33.8,24.8,70,30.14,10.0,Calm,Calm,-,N/A,,Clear,0,2013-05-26 09:36:00
3:56 AM,35.6,26.6,70,30.14,10.0,Calm,Calm,-,N/A,,Clear,0,2013-05-26 09:56:00
4:16 AM,35.6,28.4,75,30.15,10.0,Calm,Calm,-,N/A,,Clear,0,2013-05-26 10:16:00
4:36 AM,33.8,26.6,75,30.16,10.0,Calm,Calm,-,N/A,,Clear,0,2013-05-26 10:36:00
4:56 AM,33.8,26.6,75,30.16,10.0,Calm,Calm,-,N/A,,Clear,0,2013-05-26 10:56:00
5:16 AM,33.8,26.6,75,30.16,10.0,Calm,Calm,-,N/A,,Clear,0,2013-05-26 11:16:00
5:36 AM,33.8,28.4,81,30.16,10.0,Calm,Calm,-,N/A,,Clear,0,2013-05-26 11:36:00
5:56 AM,32.0,23.0,69,30.17,10.0,Calm,Calm,-,N/A,,Clear,0,2013-05-26 11:56:00
6:16 AM,32.0,26.6,80,30.18,10.0,Calm,Calm,-,N/A,,Clear,0,2013-05-26 12:16:00
6:36 AM,33.8,28.4,81,30.18,10.0,Calm,Calm,-,N/A,,Clear,0,2013-05-26 12:36:00
6:56 AM,35.6,30.2,81,30.18,10.0,Calm,Calm,-,N/A,,Clear,0,2013-05-26 12:56:00
7:16 AM,37.4,28.4,70,30.18,10.0,Calm,Calm,-,N/A,,Clear,0,2013-05-26 13:16:00
7:36 AM,41.0,28.4,61,30.18,10.0,Calm,Calm,-,N/A,,Clear,0,2013-05-26 13:36:00
7:56 AM,42.8,28.4,57,30.17,10.0,Calm,Calm,-,N/A,,Clear,0,2013-05-26 13:56:00
8:16 AM,44.6,28.4,53,30.18,10.0,Calm,Calm,-,N/A,,Clear,0,2013-05-26 14:16:00
8:36 AM,50.0,26.6,40,30.17,10.0,Calm,Calm,-,N/A,,Clear,0,2013-05-26 14:36:00
8:56 AM,51.8,26.6,38,30.17,10.0,Calm,Calm,-,N/A,,Clear,0,2013-05-26 14:56:00
9:16 AM,51.8,26.6,38,30.16,10.0,Calm,Calm,-,N/A,,Clear,0,2013-05-26 15:16:00
9:36 AM,55.4,24.8,31,30.16,10.0,Calm,Calm,-,N/A,,Clear,0,2013-05-26 15:36:00
9:56 AM,59.0,26.6,29,30.14,10.0,Calm,Calm,-,N/A,,Clear,0,2013-05-26 15:56:00
10:15 AM,60.8,23.0,23,30.14,10.0,East,4.6,-,N/A,,Clear,90,2013-05-26 16:15:00
10:35 AM,64.4,26.6,24,30.13,10.0,East,4.6,-,N/A,,Clear,100,2013-05-26 16:35:00
10:56 AM,68.0,23.0,18,30.12,10.0,WSW,8.1,-,N/A,,Clear,240,2013-05-26 16:56:00
11:16 AM,69.8,12.2,11,30.12,10.0,West,11.5,18.4,N/A,,Clear,260,2013-05-26 17:16:00
11:36 AM,71.6,10.4,9,30.11,10.0,West,11.5,21.9,N/A,,Clear,270,2013-05-26 17:36:00
11:56 AM,71.6,10.4,9,30.11,10.0,West,9.2,23.0,N/A,,Clear,280,2013-05-26 17:56:00
12:16 PM,71.6,10.4,9,30.09,10.0,WNW,4.6,-,N/A,,Clear,290,2013-05-26 18:16:00
12:36 PM,73.4,10.4,9,30.09,10.0,West,11.5,-,N/A,,Clear,260,2013-05-26 18:36:00
12:56 PM,73.4,10.4,9,30.08,10.0,SSW,11.5,-,N/A,,Clear,210,2013-05-26 18:56:00
1:16 PM,73.4,8.6,8,30.08,10.0,West,11.5,18.4,N/A,,Clear,280,2013-05-26 19:16:00
1:36 PM,73.4,8.6,8,30.07,10.0,WSW,9.2,19.6,N/A,,Clear,250,2013-05-26 19:36:00
1:56 PM,73.4,8.6,8,30.07,10.0,WSW,9.2,-,N/A,,Clear,240,2013-05-26 19:56:00
2:16 PM,75.2,12.2,9,30.07,10.0,West,13.8,18.4,N/A,,Clear,260,2013-05-26 20:16:00
2:35 PM,77.0,6.8,7,30.06,10.0,SW,9.2,-,N/A,,Clear,230,2013-05-26 20:35:00
2:55 PM,77.0,5.0,6,30.06,10.0,WSW,9.2,16.1,N/A,,Clear,250,2013-05-26 20:55:00
3:16 PM,77.0,3.2,6,30.06,10.0,WSW,12.7,19.6,N/A,,Clear,240,2013-05-26 21:16:00
3:35 PM,77.0,5.0,6,30.05,10.0,SW,12.7,19.6,N/A,,Clear,230,2013-05-26 21:35:00
3:55 PM,77.0,10.4,8,30.04,10.0,WSW,11.5,17.3,N/A,,Clear,250,2013-05-26 21:55:00
4:15 PM,73.4,10.4,9,30.04,10.0,West,10.4,-,N/A,,Clear,270,2013-05-26 22:15:00
4:36 PM,77.0,8.6,7,30.04,10.0,WNW,6.9,-,N/A,,Clear,300,2013-05-26 22:36:00
4:56 PM,77.0,8.6,7,30.03,10.0,WSW,8.1,-,N/A,,Clear,240,2013-05-26 22:56:00
5:15 PM,77.0,8.6,7,30.02,10.0,WSW,9.2,20.7,N/A,,Clear,240,2013-05-26 23:15:00
5:36 PM,77.0,8.6,7,30.02,10.0,West,15.0,18.4,N/A,,Clear,270,2013-05-26 23:36:00
5:55 PM,77.0,8.6,7,30.01,10.0,WSW,13.8,21.9,N/A,,Clear,240,2013-05-26 23:55:00
6:16 PM,75.2,10.4,8,30.01,10.0,West,9.2,-,N/A,,Clear,270,2013-05-27 00:16:00
6:36 PM,73.4,8.6,8,30.01,10.0,West,11.5,18.4,N/A,,Clear,260,2013-05-27 00:36:00
6:56 PM,73.4,10.4,9,30.01,10.0,West,10.4,-,N/A,,Clear,260,2013-05-27 00:56:00
7:16 PM,71.6,10.4,9,30.01,10.0,West,10.4,-,N/A,,Clear,260,2013-05-27 01:16:00
7:36 PM,69.8,14.0,12,30.02,10.0,West,6.9,-,N/A,,Clear,260,2013-05-27 01:36:00
7:55 PM,69.8,15.8,13,30.02,10.0,West,6.9,-,N/A,,Clear,280,2013-05-27 01:55:00
8:16 PM,64.4,17.6,16,30.03,10.0,West,6.9,-,N/A,,Clear,280,2013-05-27 02:16:00
8:36 PM,60.8,17.6,19,30.04,10.0,West,3.5,-,N/A,,Clear,270,2013-05-27 02:36:00
8:55 PM,60.8,19.4,20,30.05,10.0,Calm,Calm,-,N/A,,Clear,0,2013-05-27 02:55:00
9:16 PM,57.2,19.4,23,30.06,10.0,Calm,Calm,-,N/A,,Clear,0,2013-05-27 03:16:00
9:36 PM,53.6,19.4,26,30.07,10.0,Calm,Calm,-,N/A,,Clear,0,2013-05-27 03:36:00
9:56 PM,50.0,21.2,32,30.07,10.0,Calm,Calm,-,N/A,,Clear,0,2013-05-27 03:56:00
10:16 PM,51.8,23.0,33,30.08,10.0,Calm,Calm,-,N/A,,Clear,0,2013-05-27 04:16:00
10:36 PM,46.4,23.0,40,30.08,10.0,Calm,Calm,-,N/A,,Clear,0,2013-05-27 04:36:00
10:56 PM,46.4,23.0,40,30.08,10.0,Calm,Calm,-,N/A,,Clear,0,2013-05-27 04:56:00
11:16 PM,42.8,23.0,46,30.08,10.0,Calm,Calm,-,N/A,,Clear,0,2013-05-27 05:16:00
11:36 PM,46.4,23.0,40,30.08,10.0,Calm,Calm,-,N/A,,Clear,0,2013-05-27 05:36:00
11:56 PM,48.2,26.6,43,30.08,10.0,Calm,Calm,-,N/A,,Clear,0,2013-05-27 05:56:00